Weather History for Alliance, NE

Change the Weather History Date:

Saturday, December 1, 2012

  Actual Average Record
Temperature  
Mean Temperature 47 °F 26 °F  
Max Temperature 65 °F 42 °F 72 °F (1998)
Min Temperature 29 °F 11 °F -19 °F (1985)
Degree Days  
Heating Degree Days 18 39  
Month to date heating degree days 18 39  
Since 1 July heating degree days 1581 1838  
Cooling Degree Days 0 0  
Month to date cooling degree days 0 0  
Year to date cooling degree days 959 564  
Moisture  
Dew Point 28 °F    
Average Humidity 51    
Maximum Humidity 78    
Minimum Humidity 24    
Precipitation  
Precipitation 0.00 in 0.02 in 0.80 in (1978)
Month to date precipitation 0.00 0.02  
Year to date precipitation 6.77 15.36  
Sea Level Pressure  
Sea Level Pressure 29.84 in    
Wind  
Wind Speed 13 mph (West)    
Max Wind Speed 36 mph    
Max Gust Speed 43 mph    
Visibility 10 miles    
Events      
T = Trace of Precipitation, MM = Missing Value Source: NWS Daily Summary

Daily Weather History Graph

Daily Weather History Graph

Search for Another Location

Airport:

Trip Planner

Search our weather history database for the weather conditions in past years. The results will help you decide how hot, cold, wet, or windy it might be!

Date:

Astronomy

Dec. 01, 2012 Rise Set
Actual Time 7:00 AM MST 4:20 PM MST
Civil Twilight 6:29 AM MST 4:51 PM MST
Nautical Twilight 5:54 AM MST 5:26 PM MST
Astronomical Twilight 5:20 AM MST 6:00 PM MST
Moon 7:13 PM MST (12/1) 9:13 AM MST (12/1)
Length of Visible Light 10h 22m
Length of Day
9h 19m
Waning Gibbous, 91% of the Moon is Illuminated
Dec 1
Waning Gibbous
Dec 6
Last Quarter
Dec 13
New
Dec 19
First Quarter
Dec 28
Full

Hourly Weather History & Observations

Time (MST) Temp. Windchill Dew Point Humidity Pressure Visibility Wind Dir Wind Speed Gust Speed Precip Events Conditions
12:53 AM 34.0 °F 29.8 °F 21.9 °F 61% 29.76 in 10.0 mi South 4.6 mph - N/A   Clear
1:53 AM 36.0 °F 32.1 °F 24.1 °F 62% 29.76 in 10.0 mi SW 4.6 mph - N/A   Partly Cloudy
2:53 AM 44.1 °F 39.0 °F 27.0 °F 51% 29.75 in 10.0 mi West 9.2 mph - N/A   Overcast
3:53 AM 52.0 °F - 28.9 °F 41% 29.76 in 10.0 mi NW 11.5 mph - N/A   Partly Cloudy
4:53 AM 52.0 °F - 30.9 °F 45% 29.78 in 10.0 mi WNW 17.3 mph - N/A   Clear
5:53 AM 50.0 °F - 30.2 °F 47% 29.82 in 10.0 mi WNW 13.8 mph - N/A   Clear
6:53 AM 46.0 °F 39.9 °F 30.9 °F 56% 29.82 in 10.0 mi WNW 13.8 mph - N/A   Clear
7:53 AM 48.9 °F - 32.0 °F 52% 29.84 in 10.0 mi West 16.1 mph - N/A   Clear
8:53 AM 54.0 °F - 32.0 °F 43% 29.82 in 10.0 mi West 19.6 mph - N/A   Clear
9:53 AM 60.1 °F - 32.0 °F 35% 29.82 in 10.0 mi West 26.5 mph 34.5 mph N/A   Clear
10:53 AM 63.0 °F - 30.0 °F 29% 29.81 in 10.0 mi WNW 31.1 mph 36.8 mph N/A   Clear
11:53 AM 63.0 °F - 30.0 °F 29% 29.80 in 10.0 mi WNW 24.2 mph 32.2 mph N/A   Clear
12:53 PM 64.0 °F - 26.1 °F 24% 29.81 in 10.0 mi West 26.5 mph 38.0 mph N/A   Clear
1:53 PM 63.0 °F - 27.0 °F 26% 29.81 in 10.0 mi WNW 24.2 mph 31.1 mph N/A   Clear
2:53 PM 60.1 °F - 28.0 °F 30% 29.83 in 10.0 mi WNW 11.5 mph - N/A   Clear
3:53 PM 53.1 °F - 28.9 °F 40% 29.83 in 10.0 mi WNW 6.9 mph - N/A   Clear
4:53 PM 41.0 °F 37.1 °F 27.0 °F 57% 29.88 in 10.0 mi WSW 5.8 mph - N/A   Clear
5:53 PM 42.1 °F 38.4 °F 27.0 °F 55% 29.88 in 10.0 mi West 5.8 mph - N/A   Clear
6:53 PM 42.1 °F 38.4 °F 27.0 °F 55% 29.91 in 10.0 mi West 5.8 mph - N/A   Clear
7:53 PM 34.0 °F - 25.0 °F 70% 29.93 in 10.0 mi Calm Calm - N/A   Clear
8:53 PM 32.0 °F 26.4 °F 25.0 °F 75% 29.94 in 10.0 mi SE 5.8 mph - N/A   Clear
9:53 PM 32.0 °F 24.2 °F 26.1 °F 79% 29.92 in 10.0 mi WSW 9.2 mph - N/A   Clear
10:53 PM 35.1 °F 29.3 °F 26.1 °F 70% 29.91 in 10.0 mi SW 6.9 mph - N/A   Clear
11:53 PM 35.6 °F 31.7 °F 26.6 °F 70% 29.93 in 10.0 mi WSW 4.6 mph - N/A   Clear